| time (UTC) | temp F | wind direction | speed knots | gust knots | rain 1hr in | rain 24hr in | rain mn in | humidity % | barometer mb |
| 20260831091556 | 73 | 355 | 1.7 | 6.1 | 0.00 | 0.03 | 0.00 | 59 | 1019.6 |
| 20260831090058 | 73 | 207 | 2.6 | 5.2 | 0.00 | 0.03 | 0.00 | 60 | 1019.6 |
| 20260831084546 | 72 | 251 | 1.7 | 4.3 | 0.00 | 0.03 | 0.00 | 58 | 1019.5 |
| 20260831083046 | 72 | 342 | 0.0 | 4.3 | 0.00 | 0.03 | 0.00 | 62 | 1019.5 |
| 20260831081537 | 70 | 324 | 0.9 | 4.3 | 0.00 | 0.03 | 0.00 | 64 | 1019.4 |
| 20260831080033 | 70 | 242 | 1.7 | 3.5 | 0.00 | 0.03 | 0.00 | 68 | 1019.3 |
| 20260831074536 | 69 | 271 | 0.0 | 3.5 | 0.00 | 0.03 | 0.00 | 67 | 1019.2 |
| 20260831073030 | 68 | 257 | 0.9 | 3.5 | 0.00 | 0.03 | 0.00 | 69 | 1019.1 |
| 20260831071528 | 67 | 82 | 0.9 | 2.6 | 0.00 | 0.03 | 0.00 | 74 | 1019.1 |
| 20260831070028 | 65 | 295 | 1.7 | 3.5 | 0.00 | 0.03 | 0.00 | 79 | 1019.1 |
| 20260831064517 | 64 | 98 | 1.7 | 5.2 | 0.00 | 0.03 | 0.00 | 84 | 1019.1 |
| 20260831063013 | 63 | 93 | 0.0 | 1.7 | 0.00 | 0.03 | 0.00 | 87 | 1019.0 |
| 20260831061512 | 62 | 49 | 0.0 | 0.0 | 0.00 | 0.03 | 0.00 | 89 | 1018.9 |
| 20260831060010 | 62 | 49 | 0.0 | 0.0 | 0.00 | 0.03 | 0.00 | 91 | 1018.8 |
| 20260831054507 | 61 | 49 | 0.9 | 2.6 | 0.00 | 0.03 | 0.00 | 93 | 1018.6 |
| 20260831053004 | 61 | 49 | 0.9 | 3.5 | 0.00 | 0.03 | 0.00 | 92 | 1018.4 |
| 20260831051602 | 61 | 51 | 0.9 | 2.6 | 0.00 | 0.03 | 0.00 | 93 | 1018.3 |
| 20260831050113 | 61 | 82 | 1.7 | 3.5 | 0.00 | 0.03 | 0.00 | 94 | 1018.2 |
| 20260831044618 | 61 | 60 | 0.9 | 2.6 | 0.00 | 0.03 | 0.00 | 94 | 1018.1 |
| 20260831043055 | 60 | 57 | 0.9 | 3.5 | 0.00 | 0.03 | 0.00 | 93 | 1018.1 |
| 20260831041604 | 60 | 60 | 1.7 | 3.5 | 0.00 | 0.03 | 0.00 | 93 | 1018.0 |
| 20260831040053 | 61 | 42 | 0.9 | 2.6 | 0.00 | 0.03 | 0.00 | 93 | 1017.9 |
| 20260831034553 | 61 | 25 | 0.9 | 3.5 | 0.00 | 0.03 | 0.00 | 93 | 1017.8 |
| 20260831033050 | 61 | 15 | 2.6 | 4.3 | 0.00 | 0.03 | 0.00 | 93 | 1017.8 |
| 20260831031556 | 61 | 14 | 1.7 | 3.5 | 0.00 | 0.03 | 0.00 | 93 | 1017.7 |
| 20260831030056 | 61 | 296 | 0.9 | 1.7 | 0.00 | 0.03 | 0.00 | 93 | 1017.7 |
| 20260831024609 | 62 | 296 | 0.0 | 0.0 | 0.00 | 0.03 | 0.00 | 92 | 1017.6 |
| 20260831023044 | 62 | 296 | 0.0 | 0.0 | 0.00 | 0.03 | 0.00 | 92 | 1017.6 |
| 20260831021545 | 62 | 296 | 0.0 | 0.9 | 0.00 | 0.03 | 0.00 | 93 | 1017.4 |
| 20260831014557 | 62 | 296 | 0.0 | 0.9 | 0.00 | 0.03 | 0.00 | 92 | 1017.2 |
| 20260831013038 | 63 | 296 | 0.9 | 2.6 | 0.00 | 0.03 | 0.00 | 92 | 1017.1 |
| 20260831011538 | 63 | 118 | 0.9 | 2.6 | 0.00 | 0.03 | 0.00 | 92 | 1016.9 |
| 20260831010044 | 63 | 121 | 0.0 | 1.7 | 0.00 | 0.03 | 0.00 | 92 | 1016.9 |
| 20260831004534 | 63 | 121 | 0.0 | 1.7 | 0.00 | 0.03 | 0.00 | 91 | 1016.8 |
| 20260831003031 | 64 | 121 | 0.0 | 3.5 | 0.00 | 0.03 | 0.00 | 90 | 1016.9 |
| 20260831001539 | 64 | 123 | 0.0 | 0.0 | 0.00 | 0.03 | 0.00 | 90 | 1016.9 |
| 20260831000029 | 64 | 123 | 0.0 | 2.6 | 0.00 | 0.03 | 0.00 | 90 | 1016.9 |
| 20260830234541 | 65 | 119 | 0.0 | 3.5 | 0.00 | 0.03 | 0.00 | 90 | 1017.0 |
| 20260830233025 | 65 | 107 | 1.7 | 2.6 | 0.00 | 0.03 | 0.00 | 89 | 1017.0 |
| 20260830231523 | 66 | 75 | 1.7 | 3.5 | 0.00 | 0.03 | 0.00 | 89 | 1016.8 |
| 20260830230032 | 66 | 59 | 1.7 | 3.5 | 0.00 | 0.03 | 0.00 | 88 | 1016.9 |
| 20260830224531 | 66 | 43 | 2.6 | 3.5 | 0.00 | 0.03 | 0.00 | 88 | 1016.7 |
| 20260830223020 | 66 | 338 | 0.0 | 3.5 | 0.00 | 0.03 | 0.00 | 88 | 1016.7 |
| 20260830221516 | 67 | 344 | 0.0 | 4.3 | 0.00 | 0.03 | 0.00 | 88 | 1016.4 |
| 20260830220026 | 67 | 323 | 4.3 | 7.8 | 0.00 | 0.03 | 0.03 | 87 | 1016.4 |
| 20260830214512 | 67 | 340 | 4.3 | 8.7 | 0.00 | 0.03 | 0.03 | 88 | 1015.9 |
| 20260830213011 | 67 | 5 | 2.6 | 6.1 | 0.00 | 0.03 | 0.03 | 88 | 1015.7 |
| 20260830211511 | 67 | 360 | 2.6 | 5.2 | 0.01 | 0.03 | 0.03 | 88 | 1015.4 |
| 20260830210011 | 68 | 34 | 0.9 | 3.5 | 0.02 | 0.03 | 0.03 | 86 | 1014.9 |
| 20260830204511 | 68 | 355 | 0.9 | 5.2 | 0.03 | 0.03 | 0.03 | 85 | 1014.4 |
| 20260830203009 | 68 | 347 | 4.3 | 9.6 | 0.03 | 0.03 | 0.03 | 85 | 1014.1 |
| 20260830201522 | 69 | 315 | 5.2 | 8.7 | 0.02 | 0.02 | 0.02 | 83 | 1013.8 |
| 20260830200006 | 71 | 274 | 5.2 | 19.1 | 0.01 | 0.01 | 0.01 | 77 | 1013.2 |
| 20260830194506 | 73 | 292 | 0.9 | 4.3 | 0.00 | 0.00 | 0.00 | 74 | 1012.9 |
| 20260830193005 | 73 | 128 | 0.0 | 0.9 | 0.00 | 0.00 | 0.00 | 71 | 1012.2 |
| 20260830191553 | 74 | 128 | 0.9 | 2.6 | 0.00 | 0.00 | 0.00 | 70 | 1012.0 |
| 20260830190034 | 75 | 92 | 0.9 | 2.6 | 0.00 | 0.00 | 0.00 | 69 | 1012.2 |
| 20260830184534 | 76 | 90 | 0.0 | 0.0 | 0.00 | 0.00 | 0.00 | 67 | 1012.1 |
| 20260830183029 | 77 | 90 | 0.0 | 0.0 | 0.00 | 0.00 | 0.00 | 63 | 1012.0 |
| 20260830181529 | 78 | 90 | 0.0 | 0.0 | 0.00 | 0.00 | 0.00 | 60 | 1011.9 |
| 20260830180028 | 79 | 90 | 0.0 | 0.9 | 0.00 | 0.00 | 0.00 | 58 | 1011.9 |
| 20260830174529 | 80 | 90 | 0.9 | 2.6 | 0.00 | 0.00 | 0.00 | 55 | 1011.8 |
| 20260830173031 | 81 | 87 | 0.9 | 2.6 | 0.00 | 0.00 | 0.00 | 53 | 1011.8 |
| 20260830171527 | 82 | 60 | 1.7 | 6.1 | 0.00 | 0.00 | 0.00 | 51 | 1011.9 |
| 20260830170026 | 83 | 53 | 2.6 | 5.2 | 0.00 | 0.00 | 0.00 | 49 | 1011.9 |
| 20260830164523 | 84 | 35 | 0.9 | 3.5 | 0.00 | 0.00 | 0.00 | 48 | 1012.2 |
| 20260830163028 | 84 | 12 | 0.9 | 3.5 | 0.00 | 0.00 | 0.00 | 48 | 1012.2 |
| 20260830161521 | 83 | 57 | 0.0 | 4.3 | 0.00 | 0.00 | 0.00 | 48 | 1012.4 |
| 20260830160019 | 84 | 59 | 1.7 | 3.5 | 0.00 | 0.00 | 0.00 | 47 | 1012.5 |
| 20260830154519 | 83 | 38 | 1.7 | 3.5 | 0.00 | 0.00 | 0.00 | 49 | 1012.6 |
| 20260830153030 | 83 | 349 | 2.6 | 4.3 | 0.00 | 0.00 | 0.00 | 48 | 1012.8 |
| 20260830151526 | 83 | 59 | 0.9 | 3.5 | 0.00 | 0.00 | 0.00 | 49 | 1012.7 |
| 20260830150015 | 83 | 313 | 0.0 | 1.7 | 0.00 | 0.00 | 0.00 | 47 | 1012.8 |
| 20260830144520 | 83 | 294 | 0.9 | 3.5 | 0.00 | 0.00 | 0.00 | 48 | 1012.9 |
| 20260830143011 | 83 | 292 | 0.0 | 2.6 | 0.00 | 0.00 | 0.00 | 47 | 1013.1 |
| 20260830141511 | 84 | 261 | 0.0 | 3.5 | 0.00 | 0.00 | 0.00 | 47 | 1013.2 |
| 20260830140009 | 84 | 297 | 1.7 | 3.5 | 0.00 | 0.00 | 0.00 | 46 | 1013.4 |
| 20260830134513 | 85 | 287 | 0.9 | 4.3 | 0.00 | 0.00 | 0.00 | 44 | 1013.5 |
| 20260830133019 | 84 | 144 | 1.7 | 6.1 | 0.00 | 0.00 | 0.00 | 48 | 1013.8 |
| 20260830131506 | 83 | 211 | 3.5 | 7.0 | 0.00 | 0.00 | 0.00 | 46 | 1013.9 |
| 20260830130002 | 84 | 194 | 1.7 | 7.0 | 0.00 | 0.00 | 0.00 | 47 | 1014.1 |
| 20260830124501 | 84 | 205 | 1.7 | 6.1 | 0.00 | 0.00 | 0.00 | 46 | 1014.1 |
| 20260830123106 | 85 | 222 | 3.5 | 7.8 | 0.00 | 0.00 | 0.00 | 46 | 1014.1 |
| 20260830121558 | 84 | 238 | 2.6 | 8.7 | 0.00 | 0.00 | 0.00 | 47 | 1014.3 |
| 20260830120057 | 84 | 248 | 4.3 | 7.8 | 0.00 | 0.00 | 0.00 | 47 | 1014.4 |
| 20260830114558 | 83 | 215 | 0.0 | 6.1 | 0.00 | 0.00 | 0.00 | 48 | 1014.5 |
| 20260830113051 | 83 | 176 | 1.7 | 6.1 | 0.00 | 0.00 | 0.00 | 48 | 1014.6 |
| 20260830111548 | 82 | 290 | 2.6 | 6.1 | 0.00 | 0.00 | 0.00 | 51 | 1014.8 |
| 20260830110048 | 82 | 241 | 4.3 | 7.8 | 0.00 | 0.00 | 0.00 | 51 | 1014.8 |
| 20260830104544 | 82 | 336 | 3.5 | 7.0 | 0.00 | 0.00 | 0.00 | 50 | 1015.1 |
| 20260830103043 | 81 | 259 | 3.5 | 6.1 | 0.00 | 0.00 | 0.00 | 51 | 1015.2 |
| 20260830101541 | 82 | 266 | 3.5 | 5.2 | 0.00 | 0.00 | 0.00 | 49 | 1015.4 |
| 20260830100038 | 82 | 82 | 0.9 | 4.3 | 0.00 | 0.00 | 0.00 | 50 | 1015.4 |
| 20260830094600 | 81 | 90 | 0.9 | 5.2 | 0.00 | 0.00 | 0.00 | 52 | 1015.6 |
| 20260830093036 | 80 | 24 | 0.0 | 4.3 | 0.00 | 0.00 | 0.00 | 52 | 1015.7 |